This demonstration page uses our WeatherBlox Daily Observations layout. Learn more.

39.29038, -76.61219

Hourly Observations for January 29, 2019

Temp ( °F °C ) Dew Point ( °F °C ) Humidity (%) Winds ( mph kmh ) Pressure ( in mb ) Visibility ( mi km ) Precip ( " mm )
12:54 am 00:54 undefined 30 -1.1 18 -7.8 61 61 undefined N/A 30 1016 N/A 0 0
1:54 am 01:54 undefined 31 -0.6 21 -6.1 67 67 undefined N/A 30 1016 N/A 0 0
2:54 am 02:54 undefined 32 0 22 -5.6 66 66 undefined N/A 29.97 1015 N/A 0 0
3:54 am 03:54 undefined 32 0 23 -5 69 69 undefined N/A 29.94 1014 N/A 0 0
4:54 am 04:54 undefined 32 0 23 -5 69 69 undefined N/A 29.94 1014 N/A 0 0
5:54 am 05:54 undefined 32 0 23 -5 69 69 undefined N/A 29.94 1014 N/A 0 0
6:54 am 06:54 undefined 33 0.6 24 -4.4 70 70 undefined N/A 29.91 1013 N/A 0 0
7:54 am 07:54 undefined 33 0.6 25 -3.9 72 72 undefined N/A 29.91 1013 N/A 0 0
8:54 am 08:54 undefined 34 1.1 27 -2.8 76 76 undefined N/A 29.91 1013 N/A 0 0
9:54 am 09:54 undefined 36 2.2 28 -2.2 73 73 undefined N/A 29.91 1013 N/A 0 0
10:54 am 10:54 undefined 37 2.8 31 -0.6 79 79 undefined N/A 29.88 1012 N/A 0 0
11:54 am 11:54 undefined 38 3.3 33 0.6 83 83 undefined N/A 29.85 1011 N/A 0.01 0.254
12:54 pm 12:54 undefined 38 3.3 34 1.1 86 86 undefined N/A 29.83 1010 N/A 0 0
1:54 pm 13:54 undefined 38 3.3 33 0.6 83 83 undefined N/A 29.77 1008 N/A 0.02 0.508
2:54 pm 14:54 undefined 37 2.8 33 0.6 86 86 undefined N/A 29.77 1008 N/A 0.05 1.27
3:54 pm 15:54 undefined 34 1.1 32 0 92 92 undefined N/A 29.8 1009 N/A 0.09 2.286
4:54 pm 16:54 undefined 36 2.2 32 0 86 86 undefined N/A 29.83 1010 N/A 0.04 1.016
5:54 pm 17:54 undefined 35 1.7 32 0 89 89 undefined N/A 29.85 1011 N/A 0.02 0.508
6:54 pm 18:54 undefined 36 2.2 31 -0.6 82 82 undefined N/A 29.83 1010 N/A 0.01 0.254
7:54 pm 19:54 undefined 36 2.2 29 -1.7 76 76 undefined N/A 29.83 1010 N/A 0 0
8:54 pm 20:54 undefined 35 1.7 26 -3.3 70 70 undefined N/A 29.85 1011 N/A 0 0
9:54 pm 21:54 undefined 31 -0.6 19 -7.2 61 61 undefined N/A 29.88 1012 N/A 0 0
10:54 pm 22:54 undefined 28 -2.2 13 -10.6 53 53 undefined N/A 29.91 1013 N/A 0 0
11:54 pm 23:54 undefined 28 -2.2 11 -11.7 49 49 undefined N/A 30 1016 N/A 0 0

Powered by AerisWeather